This is the latest recevied weather packets stored in our database for station/object NE1CU. If no packets are shown the sender has not sent any weather packets the latest 10 day(s).
| Time | Temp. | Humidity | Pressure | Rain* | Wind** | Luminosity | Snow |
|---|---|---|---|---|---|---|---|
| 1777809858 | 7.22° C | 58% | 1010 hPa | 0 mm | - | 114 W/m² | - |
| 1777809556 | 7.22° C | 58% | 1010 hPa | 0 mm | - | 140 W/m² | - |
| 1777809254 | 7.22° C | 58% | 1009.9 hPa | 0 mm | - | 144 W/m² | - |
| 1777808952 | 7.22° C | 58% | 1010 hPa | 0 mm | - | 138 W/m² | - |
| 1777808648 | 7.22° C | 58% | 1010 hPa | 0 mm | - | 139 W/m² | - |
| 1777808345 | 6.67° C | 58% | 1010 hPa | 0 mm | - | 131 W/m² | - |
| 1777808044 | 6.67° C | 59% | 1009.7 hPa | 0 mm | - | 120 W/m² | - |
| 1777807740 | 6.67° C | 59% | 1009.9 hPa | 0 mm | - | 107 W/m² | - |
| 1777807439 | 6.67° C | 60% | 1009.9 hPa | 0 mm | - | 95 W/m² | - |
| 1777807139 | 6.67° C | 60% | 1009.7 hPa | 0 mm | - | 82 W/m² | - |
| 1777806837 | 6.67° C | 60% | 1009.9 hPa | 0 mm | - | 73 W/m² | - |
| 1777806533 | 6.11° C | 60% | 1009.8 hPa | 0 mm | - | 61 W/m² | - |
| 1777806229 | 6.11° C | 60% | 1009.7 hPa | 0 mm | - | 54 W/m² | - |
| 1777805926 | 6.11° C | 60% | 1009.7 hPa | 0 mm | - | 52 W/m² | - |
| 1777805623 | 6.11° C | 60% | 1009.6 hPa | 0 mm | - | 54 W/m² | - |
| 1777805321 | 6.11° C | 60% | 1009.6 hPa | 0 mm | - | 45 W/m² | - |
| 1777805018 | 6.11° C | 60% | 1009.5 hPa | 0 mm | - | 38 W/m² | - |
| 1777804715 | 6.11° C | 60% | 1009.6 hPa | 0 mm | - | 36 W/m² | - |
| 1777804413 | 6.11° C | 60% | 1009.4 hPa | 0 mm | - | 31 W/m² | - |
| 1777804110 | 6.11° C | 60% | 1009.5 hPa | 0 mm | - | 28 W/m² | - |
| 1777803807 | 6.11° C | 61% | 1009.4 hPa | 0 mm | - | 24 W/m² | - |
| 1777803503 | 6.11° C | 60% | 1009.5 hPa | 0 mm | - | 19 W/m² | - |
| 1777803201 | 5.56° C | 60% | 1009.4 hPa | 0 mm | - | 16 W/m² | - |
| 1777802897 | 5.56° C | 61% | 1009.3 hPa | 0 mm | - | 14 W/m² | - |
| 1777802595 | 5.56° C | 60% | 1009.1 hPa | 0 mm | - | 10 W/m² | - |
* Rain latest hour (hover to see other rain measurements)
** Current wind speed in m/s (hover to see current wind gust speed)